User: anonymous   Login
Location: Dover
(39.1580°N, 75.5250°W)
Time: 17:42:03
(UTC-05:00)
Language:

Cosmos 1437 Rocket - Orbit

View from above orbital plane
View from above orbital plane
View from above satellite
View from above satellite

Ground track
Ground track

The orbit data is extracted from the following two-line orbital elements,

1 13771U 83003B   15031.51298949  .00003771  00000-0  24395-3 0  2368
2 13771 081.1588 282.3184 0030163 358.3171 001.7946 15.07583066742934
Epoch (UTC): 31 January 2015 12:18:42
Eccentricity: 0.0030163
inclination: 81.1588°
perigee height: 523 km
apogee height: 564 km
right ascension of ascending node: 282.3184°
argument of perigee: 358.3171°
revolutions per day: 15.07583066
mean anomaly at epoch: 1.7946°
orbit number at epoch: 74293

The dashed part of the orbit path shows where the satellite is in the earth's shadow,  

DLR